Flag for China Weather past 2 weeks in Changchun, Jilin, China

Now
86 °F

Passing clouds.


Feels Like: 83 °F
Forecast: 63 / 87 °F
Wind: 13 mph from Southwest

Location: Changchun Airport

Current Time: May 23, 2015 at 3:22:52 PM

Latest Report: May 23, 2015 at 3:00 PM


Visibility: N/A

Pressure: 29.62 "Hg

Humidity: 14%

Dew point: 32 °F

Location of ChangchunLocation

Historic Weather in Changchun — Graph

°F

Changchun temperature yesterday

Maximum temperature yesterday: 86 °F (at 1:00 PM)
Minimum temperature yesterday: 52 °F (at 2:00 AM)
Average temperature yesterday: 70 °F

Past Weeks' High & Low Weather Summary

 TemperatureHumidityPressure
High86 °F (May 22, 1:00 PM)100% (May 17, 11:00 PM)30.12 "Hg (May 17, 11:00 PM)
Low34 °F (May 10, 3:00 AM)11% (May 22, 2:00 PM)28.91 "Hg (May 12, 7:00 PM)
Average56 °F56%29.65 "Hg
* Reported May 8 1:00 PM — May 23 1:00 PM, Changchun, Weather by CustomWeather, © 2015

Note: Actual official high and low records may vary slightly from our data, if they occured in-between our weather recording intervals... More about our weather records

Advertising

Changchun weather history for previous 24 hours

 ConditionsComfort  
Time TempWeatherWind HumidityBarometerVisibility
1:00 PM
Sat, May 23
84 °FPassing clouds.13 mph16%29.65 "HgN/A
12:00 PM82 °FPassing clouds.15 mph20%29.68 "HgN/A
11:00 AM81 °FSunny.17 mph23%29.71 "Hg10 mi
10:00 AM77 °FSunny.17 mph30%29.71 "Hg10 mi
9:00 AM75 °FSunny.20 mph29%29.71 "Hg10 mi
8:00 AM72 °FSunny.17 mph33%29.71 "Hg10 mi
7:00 AM68 °FSunny.20 mph35%29.71 "Hg10 mi
6:00 AM64 °FSunny.8 mph40%29.74 "Hg10 mi
5:00 AM61 °FSunny.8 mph42%29.71 "Hg10 mi
4:00 AM61 °FClear.13 mph39%29.68 "Hg10 mi
3:00 AM63 °FClear.13 mph37%29.68 "Hg10 mi
2:00 AM64 °FClear.15 mph40%29.68 "Hg10 mi
1:00 AM64 °FClear.13 mph43%29.68 "Hg10 mi
12:00 AM66 °FClear.15 mph37%29.71 "Hg10 mi
11:00 PM
Fri, May 22
63 °FClear.8 mph37%29.71 "Hg10 mi
10:00 PM63 °FClear.8 mph37%29.71 "Hg10 mi
9:00 PM63 °FClear.8 mph37%29.71 "Hg10 mi
8:00 PM66 °FClear.3 mph26%29.71 "Hg10 mi
7:00 PM73 °FSunny.1 mph19%29.68 "Hg10 mi
6:00 PM79 °FPassing clouds.6 mph15%29.65 "HgN/A
5:00 PM81 °FPassing clouds.8 mph18%29.65 "HgN/A
4:00 PM82 °FPassing clouds.10 mph16%29.65 "HgN/A
3:00 PM84 °FPassing clouds.10 mph12%29.62 "HgN/A
Weather by CustomWeather, © 2015

See weather overviewHow to use our weather pages